STARLINK BF

Last updated on June 19, 2020, 12:02 a.m. UTC

1 45783U 20038BF  20170.75001157  .00113864  11275-4  14128-3 0  9998
2 45783  52.9997 271.8075 0111300  69.5545 147.7276 15.96170834  1953

Satellite is not in orbit.